Regional Weather Roundup
Issued by NWS

Home | Current Version | Previous Version | Text Only | Print | Product List | Glossary On
Versions: 1 2 3 4 5 6 7 8 9 10 11 12 13 14 15 16 17 18 19 20 21 22 23 24 25 26 27 28 29 30 31 32 33 34 35 36 37 38 39 40 41 42 43 44 45 46 47 48 49 50
873
ASUS42 KTAE 192216
RWRTAE
RWRTAE
North Florida/South Alabama/Southwest Georgia Weather Roundup
National Weather Service Tallahassee Florida
600 PM EDT MON AUG 19 2019

Note: "fair" indicates few or no clouds below 12,000 feet with no
significant weather and/or obstructions to visibility.

!FLZ017-115-028-034-025-192300
...North Florida...

CITY           SKY/WX    TMP DP  RH WIND       PRES   REMARKS
TALL INTL ARPT CLOUDY    83  73  72 SW8       30.00F
FSU LOVE BLDG    N/A     82  73  74 W5          N/A
APALACHICOLA   FAIR      82  73  74 W10       30.04R
PERRY          FAIR      81  76  85 SW6       30.04S
CROSS CITY     FAIR      81  75  82 CALM      30.04S
JACKSONVILLE   PTSUNNY   84  76  76 NE7       30.02S HX  93
$$

!FLZ112-006-005-002-011-192300
...Florida Panhandle...

CITY           SKY/WX    TMP DP  RH WIND       PRES   REMARKS
MARIANNA       PTSUNNY   83  75  77 SW12      30.00S HX  90
BONIFAY        FAIR      80  74  81 S3        30.03
PANAMA CITY NW PTSUNNY   84  73  69 SW16      30.01R HX  90
TYNDALL AFB    PTSUNNY   82  75  78 SW13      30.02R
TYND DRONE APT MOCLDY    83  75  77 SW10      30.03R HX  91
DE FUNIAK SPR  NOT AVBL
EGLIN AFB      CLOUDY    82  73  74 W9        30.02R
DESTIN         PTSUNNY   83  73  72 VRB7      30.01R
HURLBURT       PTSUNNY   83  74  74 SW10      30.00R
CRESTVIEW      LGT RAIN  80  76  87 S5        30.03R
PENSACOLA      FAIR      84  74  71 SW16      30.00S HX  91
$$

!ALZ063-066-192300
...South Alabama...

CITY           SKY/WX    TMP DP  RH WIND       PRES   REMARKS
DOTHAN           N/A     75  71  87 SW7       30.04F
OZARK CAIRNS   FAIR      74  70  86 W5        30.01F
FT RUCKER HELI LGT RAIN  75  73  94 SW5       30.01S
RUCKER HELI 3  LGT RAIN  77  73  88 SE3       30.02
RUCKER HELI 2  LGT RAIN  73  73 100 W3        29.99F
FLORALA APT    PTSUNNY   80  74  81 CALM      30.05R THUNDER
ANDALUSIA      TSTM      80  76  87 SW5       30.02F
TROY           PTSUNNY   76  72  87 E5        30.02R THUNDER
EUFALA         NOT AVBL
MOBILE         PTSUNNY   81  74  79 SW8G17    30.01S
$$

!GAZ120>161-192300
...Southwest and South Central Georgia...

CITY           SKY/WX    TMP DP  RH WIND       PRES   REMARKS
THOMASVILLE    DRIZZLE   77  73  88 S3        30.03S
BAINBRIDGE     PTSUNNY   76  74  92 W5        30.00S THUNDER
MOODY AFB      PTSUNNY   78  78 100 S9        30.02S
VALDOSTA       LGT RAIN  79  75  87 S7        30.03S
MOULTRIE       FAIR      77  73  88 S3        30.03S
BLAKELY        FAIR      75  70  83 SW6       30.01S
ALBANY         LGT RAIN  77  74  90 SW7       30.04R
TIFTON         PTSUNNY  N/A N/A N/A S7        30.02
FITZGERALD     MOCLDY    82  77  85 S8        30.03F
CORDELE        MOCLDY    81  75  82 SE8       30.01S
AMERICUS       FAIR      88  72  58 SE8       30.03R HX  94
HOMERVILLE     FAIR      79  72  78 S6        30.05R
$$

!GMZ750-755-770-775-192300
...Coastal and Buoy Obs...

STATION/POSITION TIME  TEMP    WIND        PRES    VSBY  WAVE
                       AIR SEA DIR/SP/G                  HT/PER
                 (UTC) (F)     (DEG/KT/KT) (MB)    (MI)  (FT/S)
KEATON BEACH     2200   80     210/  6/  7 1017.3F
CEDAR KEY        2200   83     260/  2/  2 1017.3R
C TOWER          2200   79     270/ 12/ 13 1017.5R
APALACHICOLA BUO 2200           CALM  /  2 1017.6
PANAMA CITY BUOY 2200          230/ 12/ 16 1017.3
MOBILE BUOY      2200          230/ 19/ 25 1016.4
ORANGE BCH AL BU 2150   81 86  200/ 17/ 21 1015.5F         4/ 4
$$




USA.gov is the U.S. government's official web portal to all federal, state and local government web resources and services.